Ketchikan, AK

6:03 AM AKST on December 18, 2018 (GMT -0900)
Ketchikan International

Weather History for PAKT - February, 2018

Change the Weather History Date:

Monday, February 19, 2018

  Actual Average Record
Temperature  
Mean Temperature 28 °F -  
Max Temperature 32 °F 43 °F 56 °F (1977)
Min Temperature 25 °F 32 °F 17 °F (1952)
Degree Days  
Heating Degree Days 36    
Moisture  
Dew Point 22 °F    
Average Humidity 75    
Maximum Humidity 85    
Minimum Humidity 66    
Precipitation  
Precipitation 0.00 in - - ()
Sea Level Pressure  
Sea Level Pressure 30.27 in    
Wind  
Wind Speed 3 mph (SW)    
Max Wind Speed 8 mph    
Max Gust Speed -    
Visibility 10 miles    
Events Snow    
Averages and records for this station are not official NWS values.
T = Trace of Precipitation, MM = Missing Value Source: NWS Daily Summary

Daily Weather History Graph

Daily Weather History Graph

Search for Another Location

Airport or City:

Astronomy

Feb. 19, 2018 Rise Set
Actual Time 7:00 AM AKST 5:01 PM AKST
Civil Twilight 6:23 AM AKST 5:39 PM AKST
Nautical Twilight 5:40 AM AKST 6:21 PM AKST
Astronomical Twilight 4:58 AM AKST 7:04 PM AKST
Moon 8:43 AM AKST (2/19) 9:44 PM AKST (2/19)
Length of Visible Light 11h 16m
Length of Day
10h 00m
Waxing Crescent, 16% of the Moon is Illuminated
Feb 19
Waxing Crescent
Feb 22
First Quarter
Mar 1
Full
Mar 9
Last Quarter
Mar 17
New

Hourly Weather History & Observations

Time (AKST) Temp. Windchill Dew Point Humidity Pressure Visibility Wind Dir Wind Speed Gust Speed Precip Events Conditions
12:53 AM 26.1 °F 21.9 °F 16.0 °F 66% 30.40 in 10.0 mi West 3.5 mph - N/A   Clear
1:53 AM 26.1 °F - 17.1 °F 69% 30.38 in 10.0 mi Calm Calm - N/A   Scattered Clouds
2:53 AM 25.0 °F - 15.1 °F 66% 30.36 in 10.0 mi Calm Calm - N/A   Scattered Clouds
3:53 AM 25.0 °F - 17.1 °F 72% 30.36 in 10.0 mi Calm Calm - N/A   Scattered Clouds
4:53 AM 26.1 °F 19.4 °F 18.0 °F 71% 30.34 in 10.0 mi South 5.8 mph - N/A   Mostly Cloudy
5:53 AM 27.0 °F 21.6 °F 19.0 °F 72% 30.32 in 10.0 mi South 4.6 mph - N/A   Overcast
6:10 AM 26.6 °F 21.2 °F 19.4 °F 74% 30.30 in 10.0 mi SSE 4.6 mph - N/A   Overcast
6:53 AM 28.4 °F 23.3 °F 19.4 °F 69% 30.31 in 10.0 mi SSE 4.6 mph - N/A   Overcast
7:53 AM 28.4 °F - 19.4 °F 69% 30.30 in 9.0 mi Calm Calm - N/A   Overcast
8:53 AM 28.4 °F 24.6 °F 21.2 °F 74% 30.28 in 5.0 mi South 3.5 mph - N/A Snow Light Snow
9:53 AM 28.9 °F 23.9 °F 23.0 °F 78% 30.27 in 10.0 mi South 4.6 mph - 0.00 in   Overcast
10:53 AM 30.2 °F 26.7 °F 23.0 °F 75% 30.27 in 10.0 mi SSE 3.5 mph - N/A   Overcast
11:53 AM 30.2 °F 24.3 °F 24.8 °F 80% 30.26 in 10.0 mi SE 5.8 mph - N/A   Overcast
12:53 PM 30.2 °F 26.7 °F 24.8 °F 80% 30.25 in 10.0 mi Variable 3.5 mph - N/A   Overcast
1:53 PM 30.2 °F 24.3 °F 24.8 °F 80% 30.22 in 10.0 mi SE 5.8 mph - N/A   Overcast
2:53 PM 30.2 °F - 24.8 °F 80% 30.21 in 10.0 mi Calm Calm - N/A   Overcast
3:53 PM 32.0 °F - 24.1 °F 73% 30.20 in 10.0 mi Calm Calm - N/A   Mostly Cloudy
4:53 PM 32.0 °F 28.7 °F 24.8 °F 75% 30.21 in 10.0 mi WNW 3.5 mph - N/A   Mostly Cloudy
5:53 PM 32.0 °F 27.5 °F 26.1 °F 79% 30.22 in 10.0 mi WNW 4.6 mph - N/A   Mostly Cloudy
6:53 PM 30.9 °F 26.2 °F 25.0 °F 79% 30.22 in 10.0 mi WNW 4.6 mph - N/A   Mostly Cloudy
7:53 PM 28.9 °F 25.2 °F 24.1 °F 82% 30.22 in 10.0 mi NW 3.5 mph - N/A   Partly Cloudy
8:53 PM 28.9 °F 23.9 °F 25.0 °F 85% 30.23 in 10.0 mi NW 4.6 mph - N/A   Clear
9:53 PM 28.9 °F 23.9 °F 25.0 °F 85% 30.23 in 10.0 mi WNW 4.6 mph - N/A   Clear
10:53 PM 30.0 °F 23.2 °F 24.1 °F 79% 30.25 in 10.0 mi NW 6.9 mph - N/A   Clear
11:53 PM 30.0 °F 22.4 °F 23.0 °F 75% 30.25 in 10.0 mi NW 8.1 mph - N/A   Clear